Location: Unspecified
(45.3999°N, 88.1269°W)
Time: 04:26:39
(UTC-05:00)

ISS - Visible Passes

Search period start: 26 September 2018 00:00
Search period end: 06 October 2018 00:00
Orbit: 403 x 408 km, 51.6° (Epoch: 26 September)

Date Brightness Start Highest point End Pass type
(mag) Time Alt. Az. Time Alt. Az. Time Alt. Az.
26 Sep -3.8 19:20:09 10° WSW 19:23:28 86° SE 19:26:46 10° ENE visible
26 Sep -2.0 20:57:15 10° WNW 20:59:48 29° NNW 20:59:48 29° NNW visible
27 Sep -2.6 20:05:05 10° W 20:08:11 37° NNW 20:09:58 20° NE visible
27 Sep -0.3 21:42:23 10° WNW 21:42:38 11° NW 21:42:38 11° NW visible
28 Sep -3.1 19:12:55 10° W 19:16:10 51° NNW 19:19:24 10° NE visible
28 Sep -1.9 20:50:17 10° WNW 20:52:44 26° NNW 20:52:44 26° NNW visible
29 Sep -2.2 19:58:06 10° WNW 20:01:02 29° N 20:02:47 18° NE visible
29 Sep -0.3 21:35:08 10° NW 21:35:27 12° NW 21:35:27 12° NW visible
30 Sep -2.5 19:05:52 10° W 19:08:56 34° NNW 19:11:59 10° NE visible
30 Sep -1.9 20:43:07 10° NW 20:45:28 26° NNW 20:45:28 26° NNW visible
01 Oct -2.1 19:51:01 10° WNW 19:53:53 26° N 19:55:27 18° NE visible
01 Oct -0.4 21:27:43 10° NW 21:28:07 13° NW 21:28:07 13° NW visible
02 Oct -2.2 18:58:49 10° WNW 19:01:43 27° N 19:04:37 10° NE visible
02 Oct -2.2 20:35:45 10° NW 20:38:06 30° NNW 20:38:06 30° NNW visible
03 Oct -2.4 19:43:44 10° NW 19:46:40 28° N 19:48:04 21° NE visible
03 Oct -0.5 21:20:13 10° WNW 21:20:44 14° WNW 21:20:44 14° WNW visible
04 Oct -2.7 20:28:14 10° NW 20:30:43 40° NNW 20:30:43 40° NNW visible
05 Oct -2.9 19:36:15 10° NW 19:39:21 37° NNE 19:40:43 25° ENE visible
05 Oct -0.6 21:12:45 10° WNW 21:13:23 15° WNW 21:13:23 15° WNW visible
